Regional Weather Roundup
Issued by NWS

Home | Current Version | Previous Version | Graphics & Text | Print | Product List | Glossary On
Versions: 1 2 3 4 5 6 7 8 9 10 11 12 13 14 15 16 17 18 19 20 21 22 23 24 25 26 27 28
000
ASUS45 KCYS 150910
RWRWY

WYOMING REGIONAL WEATHER ROUNDUP
NATIONAL WEATHER SERVICE CHEYENNE WY
200 AM MST SUN JAN 15 2017

NOTE:  "FAIR" INDICATES FEW OR NO CLOUDS BELOW 12,000 FEET
WITH NO SIGNIFICANT WEATHER AND/OR OBSTRUCTIONS TO VISIBILITY.

WYZ001-151000-
YELLOWSTONE NATIONAL PARK

CITY           SKY/WX    TMP DP  RH WIND       PRES   REMARKS
LK YELLOWSTONE   N/A    -17 -21  82 CALM      30.21F
W YELLOWSTONE  NOT AVBL

$$
WYZ002>013-054>058-071-098>099-151000-
NORTHERN WYOMING

CITY           SKY/WX    TMP DP  RH WIND       PRES   REMARKS
JACKSON        FAIR     -17 -18  91 N6        30.27F WCI -31
CODY           FAIR      12  -2  53 CALM      30.14F
GREYBULL       FAIR     -17 -22  78 CALM      30.24F
WORLAND        FAIR     -12 -16  82 CALM      30.20F
SHERIDAN       FAIR       6  -5  60 VRB7      30.13F WCI  -6
BUFFALO        FAIR      26  -4  27 W10       30.12F WCI  16
GILLETTE       FAIR       2  -2  83 CALM      30.14F
HULETT         FAIR      14   5  67 MISG      30.15F
NEWCASTLE      FAIR      14   7  73 N5        30.20S WCI   6

$$
WYZ014>020-022>026-101>103-151000-
CENTRAL WYOMING

CITY           SKY/WX    TMP DP  RH WIND       PRES   REMARKS
BIG PINEY      ICE FOG  -14 -15  96 SW3       30.20S VSB 1/2
PINEDALE       FAIR      -9 -15  77 NW8       30.19S WCI -26
DUBOIS         NOT AVBL
LANDER         FAIR       7   4  87 SE3       30.18S
RIVERTON       FAIR      -1  -4  87 SW3       30.20R
CASPER         FAIR      23  16  74 SW13      30.16F WCI  11
DOUGLAS        FAIR      15  12  88 CALM      30.17F

$$
WYZ021-027>030-104>119-151000-
SOUTHERN WYOMING

CITY           SKY/WX    TMP DP  RH WIND       PRES   REMARKS
EVANSTON       FAIR       8   3  80 NE6       30.15F WCI  -2
ROCK SPRINGS   FOG       12   8  84 CALM      30.20F VSB 1/4
RAWLINS        FOG       21  19  92 S6        30.19R VSB 1/4 WCI  13
LARAMIE        FOG       18  14  84 S6        30.16S VSB 1/4 WCI  10
CHEYENNE       CLOUDY    25  20  81 W6        30.16S WCI  18
TORRINGTON     FAIR      23  20  88 CALM      30.18F

$$




USA.gov is the U.S. government's official web portal to all federal, state and local government web resources and services.